www.pogodaiklimat.ru

Погода и климат >> Архив погоды >> Мексика >> Monclova


ПОГОДА в Monclova

  • Прогноз погоды в Monclova
  • Монитор погоды в Monclova
  • Климат города

АРХИВ ПОГОДЫ в Monclova

Время (UTC), дата Ветер
(напр.,м/с)
 
Видим.   Явления Облачность Т
(С)
Тd
(С)
f
(%)
Тe
(С)
Тes
(С)
Комфортность P
(гПа)
Po
(гПа)
Тmin
(С)
Tmax
(С)
R
(мм)
R24
(мм)
S
(см)
18 11.10 СВ 2 12 км 8/8 600 м
[Cu med, cong]
+27.2 +21.7 72 +35 +38 очень
душно
1016.4 947.4 +21.7 +27.6
21 11.10 СВ 2 12 км 4/4 600 м
[Cu med, cong]
+28.7 +22.1 68 +37 +43 очень
душно
1013.7 945.3
00 12.10 С 2 12 км 9/5 600 м
[Cu med, cong Ac As]
+26.8 +21.8 74 +34 +34 очень
душно
1012.7 944.6 +21.7 +29.5
03 12.10 С 2 4000 м 8/4 600 м
[Cu med, cong Ac As]
+24.4 +21.6 84 +31 +31 очень
душно
1013.3 945.3
09 12.10 С 2 4000 м 10/10 300 м
[Frnb]
+23.0 +21.6 92 +31 +31 очень
душно
1014.0 945.6
12 12.10 С 1 4000 м 10/10 300 м
[Frnb]
+23.0 +21.6 92 +31 +31 очень
душно
1014.0 945.3 +22.5 +29.5
15 12.10 СВ 1 12 км 9/3 600 м
[Sc Ac As]
+24.0 +21.8 88 +31 +32 очень
душно
1014.4 945.6
18 12.10 СВ 3 12 км 8/8 600 м
[Frnb]
+27.6 +22.1 72 +36 +38 очень
душно
1014.3 945.7 +21.0 +28.0
21 12.10 СВ 4 12 км ясно +32.6 +22.6 56 +42 +49 опасность
перегрева
1010.1 942.2
00 13.10 СВ 2 12 км 8/8 600 м
[Sc]
+30.4 +22.2 62 +39 +39 очень
душно
1008.6 941.3
03 13.10 З 2 4000 м ясно +27.2 +23.4 80 +37 +37 очень
душно
1008.8 941.7
06 13.10 ЮЗ 2 4000 м ясно +25.8 +21.7 78 +33 +33 очень
душно
1008.7 941.6 +33.5
09 13.10 ЮЗ 2 4000 м ясно +24.6 +21.3 82 +31 +31 очень
душно
1008.6 941.2
12 13.10 ЮВ 3 4000 м ясно +24.0 +20.9 83 +30 +30 очень
душно
1008.6 940.8 +23.4 +33.5
15 13.10 ЮЗ 1 12 км ясно +25.0 +21.7 82 +32 +36 очень
душно
1011.9 943.6
18 13.10 СЗ 2 12 км ясно +32.8 +18.3 42 +37 +51 опасность
солнечного
удара
1010.2 942.2 +21.8 +33.2
21 13.10 С 1 12 км ясно +35.8 +18.3 36 +40 +51 опасность
солнечного
удара
1006.6 939.4
00 14.10 СВ 1 12 км ясно +33.6 +17.9 39 +37 +38 очень
душно
1005.7 939.1 +21.6 +36.5
03 14.10 З 2 4000 м ясно +28.0 +17.9 54 +32 +32 душно 1007.4 941.0
06 14.10 З 1 4000 м ясно +26.0 +20.4 71 +32 +32 очень
душно
1008.0 941.4 +21.8 +36.5
09 14.10 Ю 1 4000 м ясно +23.4 +18.5 74 +30 +30 очень
душно
1008.8 941.6
12 14.10 Ю 2 4000 м ясно +21.8 +17.7 78 +26 +26 душно 1010.1 942.2 +21.0 +36.5
15 14.10 Ю 2 12 км ясно +24.9 +20.1 75 +31 +34 очень
душно
1011.4 943.0
18 14.10 В 2 12 км ясно +30.7 +22.7 62 +40 +54 опасность
солнечного
удара
1010.3 942.1 +21.0 +31.1
21 14.10 С 2 12 км ясно +33.9 +23.3 54 +44 +54 опасность
перегрева
1007.5 940.0
00 15.10 СВ 2 12 км 1/1 600 м
[Cu med, cong]
+31.1 +23.6 64 +42 +42 опасность
перегрева
1006.6 939.7 +21.0 +34.2
03 15.10 СЗ 3 4000 м 6/3 600 м
[Cu med, cong Ac und]
+28.8 +22.5 69 +38 +38 очень
душно
1007.5 940.9
06 15.10 С 2 4000 м 8/3 300 м
[St Ac und]
+27.0 +22.6 77 +36 +36 очень
душно
1009.0 942.2 +21.0 +34.2
09 15.10 СЗ 1 4000 м 4/0 2000 м
[Ac und]
+26.0 +22.2 80 +34 +34 очень
душно
1009.6 942.4
12 15.10 С 2 4000 м слабая морось 9/3 300 м
[St Ac und]
+25.0 +22.3 85 +33 +33 очень
душно
1010.3 942.6 0.0
15 15.10 В 4 10 км 10/10 300 м
[Frnb]
+11.8 +9.3 85 +10 +10 1018.4 949.4
18 15.10 В 2 10 км слабая морось 10/10 300 м
[Frnb]
+9.0 +8.1 94 +7 +7 1024.5 954.0 2
21 15.10 СВ 4 10 км слабая морось 10/10 300 м
[Frnb]
+9.2 +8.5 95 +6 +6 1025.0 953.5 1
00 16.10 В 4 10 км слабая морось 10/10 300 м
[Frnb]
+8.4 +7.7 95 +5 +5 1026.0 953.4 2
03 16.10 СВ 4 4000 м слабая морось 10/10 300 м
[Frnb]
+7.4 +6.2 92 +4 +4 1026.8 953.7 1
06 16.10 ЮВ 4 4000 м слабая морось 10/10 300 м
[Frnb]
+6.8 +6.0 95 +3 +3 1028.0 954.7 2
09 16.10 СВ 3 4000 м слабая морось 10/10 300 м
[Frnb]
+6.8 +6.0 95 +4 +4 1027.4 954.0 0.5
12 16.10 СВ 3 4000 м слабая морось 10/10 300 м
[Frnb]
+6.8 +5.6 92 +4 +4 1027.0 953.5 0.5
15 16.10 СВ 2 12 км 10/10 300 м
[Frnb]
+8.0 +5.2 82 +6 +6 1028.6 955.0
18 16.10 С 2 12 км 10/10 300 м
[Frnb]
+12.0 +7.6 74 +11 +11 1027.4 954.0 +5.6 +12.3
21 16.10 СВ 1 12 км 10/10 300 м
[Frnb]
+13.4 +8.4 72 +14 +14 1018.5 952.8
00 17.10 СВ 2 12 км 10/10 200 м
[Frnb]
+11.8 +7.8 76 +11 +11 1025.6 953.1 +5.6 +14.0
03 17.10 СВ 2 4000 м 10/10 300 м
[Frnb]
+10.4 +6.6 77 +9 +9 1027.2 954.8
06 17.10 В 2 4000 м слабая морось 10/10 300 м
[Frnb]
+8.4 +7.3 93 +6 +6 1028.3 955.8 2
09 17.10 СВ 1 4000 м слабая морось 10/10 300 м
[Frnb]
+8.0 +7.2 95 +7 +7 1028.1 955.4 2
12 17.10 СВ 2 4000 м 10/10 300 м
[Frnb]
+8.4 +7.3 93 +6 +6 1028.6 955.5 +7.0 +14.0
15 17.10 В 2 10 км 10/10 300 м
[Frnb]
+8.8 +7.3 90 +7 +7 1031.2 957.8
18 17.10 СВ 1 12 км 9/5 600 м
[Cu med, cong Ac As]
+14.2 +9.7 74 +15 +18 1030.4 957.2 +7.0 +14.5
21 17.10 СВ 2 12 км 10/3 600 м
[Cu med, cong As trans]
+16.0 +10.6 70 +16 +19 1027.2 954.7
00 18.10 В 2 12 км 9/1 600 м
[Cu med, cong Ac und]
+14.8 +10.7 76 +15 +15 1027.3 955.2 +7.0 +16.4
03 18.10 С 3 4000 м 10/10 300 м
[Frnb]
+13.0 +10.2 83 +12 +12 1028.1 956.3
06 18.10 СВ 2 4000 м 10/10 300 м
[Frnb]
+12.0 +10.3 89 +11 +11 1028.1 956.3 +16.4
09 18.10 С 1 4000 м слабая морось 10/10 300 м
[Frnb]
+11.0 +10.5 97 +11 +11 1028.1 956.0 0.0
12 18.10 С 1 4000 м слабая морось 10/10 300 м
[]
+11.0 +10.5 97 +11 +11 1028.4 956.0 0.0

 

Местоположение метеостанции Monclova (Мексика): широта 26.88 долгота -101.40 высота над уровнем моря 615 м.

В архиве по умолчанию представлена погода в Monclova за последнюю неделю. Архивные данные за месяц целиком и за предыдущие месяцы, начиная с января 2011 года, Вы можете получить, выбрав интересующий диапазон дат из раскрывающегося списка и нажав кнопку "Ввод!".


*Определитесь, кто Вы:
робот инопланетянин человек

Внимание! Время в таблицах - всемирное. Для получения местного времени необходимо прибавить поправку, которая в Monclova равна -6 ч.

Смотрите также архив погоды в соседних городах и на ближайших метеорологических станциях:

Погода в Monterrey (Мексика) (168 км)
Погода в Saltillo (Мексика) (173 км)
Погода в Piedras Negras (Мексика) (221 км)
Погода в Torreon (Мексика) (250 км)
Погода в Hidalgo del Parral (Мексика) (417 км)
Погода в Ciudad Victoria (Мексика) (418 км)
Погода в Sombrerete (Мексика) (424 км)
Погода в Durango (Мексика) (450 км)
Погода в Tepehuanes (Мексика) (464 км)
Погода в Zacatecas (Мексика) (469 км)

Пояснения к столбцам:

Ветер - указаны скорость ветра в м/с - средняя за 10 мин, порывы в срок и между сроками (в фигурных скобках) и направление, откуда дует ветер: С - северный, СВ - северо-восточный, В - восточный, ЮВ - юго-восточный, Ю - южный, ЮЗ - юго-западный, З - западный, СЗ - северо-западный.
Видимость - горизонтальная дальность видимости в метрах или километрах. При видимости от 1 до 10 км при отсутствии осадков обычно наблюдается дымка, при ухудшении видимости до 1 км и менее - туман. В сухую погоду видимость может ухудшаться дымом, пылью или мглою.
Явления - указаны атмосферные явления, наблюдавшиеся в срок или в последний час перед сроком; фигурными скобками обозначены явления, наблюдавшиеся между сроками (за 1-3 часа до срока); квадратными скобками обозначены град или гололедные отложения с указанием их диаметра в мм.
Облачность - указаны через наклонную черту общая и нижняя облачность в баллах и высота нижней границы облаков в метрах; квадратными скобками обозначены формы облаков: Ci - перистые, Cs - перисто-слоистые, Cc - перисто-кучевые, Ac - высококучевые, As - высокослоистые, Sc - слоисто-кучевые, Ns - слоисто-дождевые, Cu - кучевые, Cb - кучево-дождевые. Подробнее классификацию облаков см. в Атласе облаков (PDF).
T - Температура воздуха - температура, измеренная на высоте 2 м над землей.
Td - Температура точки росы - температура, при понижении до которой содержащийся в воздухе водяной пар достигнет насыщения.
f - Относительная влажность воздуха - влажноcть воздуха, измеренная на высоте 2 м над землей.
Te - Эффективная температура - температура, которую ощущает одетый по сезону человек в тени. Характеристика душности погоды. При расчете учитывается влияние влажности воздуха и скорости ветра на теплоощущения человека.
Tes - Эффективная температура на солнце - температура, которую ощущает человек, с поправкой на солнечный нагрев. Характеристика знойности погоды. Зависит от высоты солнца над горизонтом, облачности и скорости ветра. Ночью, в пасмурную погоду, а также при ветре 12 м/с и более поправка равна нулю.
P - Атмосферное давление - приведенное к уровню моря атмосферное давление.
Po - Атмосферное давление - измеренное на уровне метеостанции атмосферное давление.
Tmin - Минимальная температура - минимум температуры воздуха на высоте 2 м над землей.
Tmax - Максимальная температура - максимум температуры воздуха на высоте 2 м над землей.
R - Количество осадков - Количество выпавших осадков за период времени, мм. При наведении курсора мыши на число - период времени, за который выпало указанное количество осадков.
R24 - Количество осадков - Количество выпавших осадков за 24 часа, мм.
S - Снежный покров - Высота снежного покрова, см. При наведении курсора мыши на число - состояние снежного покрова и степень покрытия местности в баллах.